This demonstration page uses our WeatherBlox Daily Observations layout. Learn more.

Left ArrowRight Arrow

38.88101, -77.10428

Hourly Observations for May 3, 2020

Temp ( °F °C ) Dew Point ( °F °C ) Humidity (%) Winds ( mph kmh ) Pressure ( in mb ) Visibility ( mi km ) Precip ( " mm )
12:52 am 00:52 Cloudy 61 16.1 51 10.6 70 70 S 8 13 29.93 1013 10 16.0934 0 0
1:52 am 01:52 Mostly Cloudy 62 16.7 47 8.3 58 58 S 8 13 29.89 1012 10 16.0934 0 0
2:52 am 02:52 Mostly Cloudy 61 16.1 49 9.4 65 65 SSW 7 11 29.86 1011 10 16.0934 0 0
3:52 am 03:52 Cloudy 60 15.6 51 10.6 72 72 S 9 15 29.85 1011 10 16.0934 0 0
4:52 am 04:52 Cloudy 61 16.1 49 9.4 65 65 SSW 8 13 29.85 1011 10 16.0934 0 0
5:52 am 05:52 Cloudy 62 16.7 49 9.4 62 62 SSW 10 17 29.85 1011 10 16.0934 0 0
6:52 am 06:52 Cloudy 60 15.6 52 11.1 75 75 SSW 6 9 29.87 1011 10 16.0934 0 0
7:52 am 07:52 Cloudy 61 16.1 52 11.1 72 72 Calm 29.88 1012 10 16.0934 0 0
8:52 am 08:52 Cloudy 61 16.1 52 11.1 72 72 S 6 9 29.89 1012 10 16.0934 0 0
9:52 am 09:52 Mostly Cloudy 61 16.1 54 12.2 78 78 S 7 11 29.87 1012 10 16.0934 0 0
10:52 am 10:52 Cloudy with Light Rain 60 15.6 55 12.8 84 84 S 10 17 29.9 1012 10 16.0934 0.01 0.254
11:52 am 11:52 Mostly Cloudy 61 16.1 58 14.4 90 90 S 6 9 29.87 1012 10 16.0934 0.07 1.778
12:52 pm 12:52 Mostly Cloudy 63 17.2 60 15.6 90 90 S 10 17 29.86 1011 10 16.0934 0 0
1:52 pm 13:52 Cloudy 67 19.4 62 16.7 84 84 S 8 13 29.83 1010 10 16.0934 0 0
2:52 pm 14:52 Mostly Cloudy 75 23.9 62 16.7 64 64 WSW 9 15 29.82 1010 10 16.0934 0 0
3:52 pm 15:52 Mostly Cloudy 77 25 61 16.1 58 58 WSW 14 22 29.79 1009 10 16.0934 0 0
4:52 pm 16:52 Mostly Cloudy 77 25 61 16.1 58 58 SW 10 17 29.76 1008 10 16.0934 0 0
5:52 pm 17:52 Mostly Cloudy 73 22.8 62 16.7 69 69 S 8 13 29.76 1008 10 16.0934 0 0
6:52 pm 18:52 Mostly Cloudy 72 22.2 62 16.7 71 71 S 9 15 29.73 1007 10 16.0934 0 0
7:52 pm 19:52 Cloudy 70 21.1 61 16.1 73 73 S 7 11 29.72 1007 10 16.0934 0 0
8:52 pm 20:52 Cloudy 70 21.1 62 16.7 76 76 S 5 7 29.71 1006 10 16.0934 0 0
9:27 pm 21:27 Cloudy with Nearby Thunderstorms 69 20.6 62 16.7 78 78 NNE 5 7 29.7 1006 10 16.0934 0 0
9:31 pm 21:31 Cloudy with Light Thunderstorms 69 20.6 62 16.7 78 78 N 7 11 29.7 1006 10 16.0934 0.001 0.001
9:39 pm 21:39 Cloudy with Light Thunderstorms 70 21.1 64 17.8 82 82 WNW 15 24 29.74 1007 10 16.0934 0.001 0.001
9:52 pm 21:52 Cloudy with Light Thunderstorms 68 20 63 17.2 84 84 N 10 17 29.72 1007 4 6.43736 0.11 2.794
10:00 pm 22:00 Cloudy with Nearby Thunderstorms 67 19.4 64 17.8 91 91 N 8 13 29.72 1006 10 16.0934 0.001 0.001
10:24 pm 22:24 Cloudy with Heavy Rain 67 19.4 64 17.8 91 91 WNW 10 17 29.75 1007 2.5 4.02335 0.07 1.778
10:26 pm 22:26 Cloudy with Heavy Thunderstorms 67 19.4 63 17.2 87 87 WNW 10 17 29.76 1008 2 3.21868 0.08 2.032
10:32 pm 22:32 Cloudy with Light Thunderstorms 68 20 63 17.2 84 84 NW 14 22 29.75 1007 3 4.82802 0.14 3.556
10:41 pm 22:41 Cloudy with Light Thunderstorms 67 19.4 63 17.2 87 87 NNW 12 19 29.75 1007 9 14.48406 0.15 3.81
10:52 pm 22:52 Cloudy with Heavy Thunderstorms 66 18.9 64 17.8 93 93 NNW 12 19 29.75 1007 4 6.43736 0.19 4.826
11:01 pm 23:01 Cloudy with Heavy Thunderstorms 65 18.3 64 17.8 97 97 N 9 15 29.75 1007 2.5 4.02335 0.09 2.286
11:19 pm 23:19 Cloudy with Heavy Thunderstorms 65 18.3 64 17.8 97 97 N 12 19 29.73 1007 3 4.82802 0.27 6.858
11:52 pm 23:52 Cloudy with Light Thunderstorms 65 18.3 63 17.2 93 93 N 8 13 29.71 1006 5 8.0467 0.38 9.652

Powered by AerisWeather